This is the latest recevied weather packets stored in our database for station/object AD6NH. If no packets are shown the sender has not sent any weather packets the latest 10 day(s).
| Time | Temp. | Humidity | Pressure | Rain* | Wind** | Luminosity | Snow |
|---|---|---|---|---|---|---|---|
| 1778072823 | 11.67° C | 77% | 1018.4 hPa | 0 mm | - | - | - |
| 1778072223 | 12.22° C | 77% | 1018.3 hPa | 0 mm | - | - | - |
| 1778071623 | 12.22° C | 77% | 1018.3 hPa | 0 mm | - | - | - |
| 1778071023 | 11.67° C | 79% | 1018.2 hPa | 0 mm | - | - | - |
| 1778070423 | 11.67° C | 81% | 1018.1 hPa | 0 mm | - | - | - |
| 1778069823 | 11.67° C | 81% | 1018.1 hPa | 0 mm | - | - | - |
| 1778069223 | 11.67° C | 82% | 1018.2 hPa | 0 mm | - | - | - |
| 1778068623 | 11.67° C | 82% | 1018 hPa | 0 mm | - | - | - |
| 1778068023 | 11.67° C | 82% | 1018 hPa | 0 mm | - | - | - |
| 1778067423 | 12.22° C | 81% | 1018 hPa | 0 mm | - | - | - |
| 1778066823 | 12.22° C | 80% | 1018 hPa | 0 mm | - | - | - |
| 1778066223 | 12.22° C | 80% | 1018 hPa | 0 mm | - | - | - |
| 1778065623 | 12.78° C | 80% | 1018 hPa | 0 mm | - | - | - |
| 1778065023 | 12.78° C | 81% | 1018 hPa | 0 mm | - | - | - |
| 1778064423 | 12.78° C | 81% | 1018.1 hPa | 0 mm | - | - | - |
| 1778063823 | 12.78° C | 81% | 1018 hPa | 0 mm | - | - | - |
| 1778063223 | 13.33° C | 81% | 1017.9 hPa | 0 mm | - | - | - |
| 1778062623 | 13.33° C | 82% | 1018 hPa | 0 mm | - | - | - |
| 1778062023 | 13.33° C | 83% | 1018 hPa | 0 mm | - | - | - |
| 1778061423 | 13.33° C | 83% | 1018 hPa | 0 mm | - | - | - |
| 1778060823 | 13.33° C | 83% | 1018.1 hPa | 0 mm | - | - | - |
| 1778060223 | 13.89° C | 83% | 1017.9 hPa | 0 mm | - | - | - |
| 1778059623 | 13.89° C | 84% | 1018.1 hPa | 0 mm | - | - | - |
| 1778059023 | 13.89° C | 84% | 1018.1 hPa | 0 mm | - | - | - |
| 1778058423 | 13.33° C | 86% | 1018.2 hPa | 0 mm | - | - | - |
* Rain latest hour (hover to see other rain measurements)
** Current wind speed in m/s (hover to see current wind gust speed)